When you browse on this site, cookies collect data to enhance your experience and personalize the content and advertising you see.
Visit our Privacy Policy to learn more. By continuing to use the site, you agree to this use of cookies and data.
  • In Austria
  • List of Countries
  • For 7 days
  • Water Temperature
  • Weather Map
  • News
  • Weather Widgets
  • user-avatar
    Login

    Hourly Weather San Marcos

    Today, 17 November, Sunday

    Time Temperature Precipitation Wind Pressure Humidity
    00:00 +13°C° 0 mm 0 mps 596 mmHg 87%
    01:00 +13°C° 0 mm 0 mps 595 mmHg 85%
    02:00 +13°C° 0 mm 0 mps 595 mmHg 82%
    03:00 +13°C° 0 mm 0 mps 595 mmHg 83%
    04:00 +12°C° 0 mm 0 mps 595 mmHg 83%
    05:00 +12°C° 0 mm 0 mps 594 mmHg 84%
    06:00 +13°C° 0 mm 0 mps 595 mmHg 77%
    07:00 +15°C° 0 mm 0 mps 596 mmHg 70%
    08:00 +16°C° 0 mm 0 mps 597 mmHg 63%
    09:00 +20°C° 0 mm 1 mps 598 mmHg 57%
    10:00 +21°C° 0 mm 1 mps 598 mmHg 50%
    11:00 +23°C° 0 mm 2 mps 598 mmHg 44%
    12:00 +22°C° 0 mm 3 mps 598 mmHg 43%
    13:00 +22°C° 0 mm 3 mps 597 mmHg 43%
    14:00 +23°C° 0 mm 4 mps 597 mmHg 43%
    15:00 +21°C° 0 mm 4 mps 596 mmHg 48%
    16:00 +20°C° 0 mm 3 mps 596 mmHg 54%
    17:00 +19°C° 0 mm 3 mps 596 mmHg 59%
    18:00 +18°C° 0.1 mm 3 mps 596 mmHg 63%
    19:00 +18°C° 0.1 mm 2 mps 597 mmHg 66%
    20:00 +18°C° 0.1 mm 1 mps 598 mmHg 69%
    21:00 +18°C° 0.1 mm 1 mps 597 mmHg 71%
    22:00 +18°C° 0.1 mm 1 mps 597 mmHg 73%
    23:00 +16°C° 0.1 mm 1 mps 597 mmHg 75%

    Tomorrow, 18 November, Monday

    Time Temperature Precipitation Wind Pressure Humidity
    00:00 +16°C° 0 mm 1 mps 596 mmHg 75%
    01:00 +14°C° 0 mm 0 mps 596 mmHg 76%
    02:00 +14°C° 0 mm 0 mps 596 mmHg 76%
    03:00 +14°C° 0 mm 0 mps 595 mmHg 78%
    04:00 +13°C° 0 mm 0 mps 595 mmHg 80%
    05:00 +12°C° 0 mm 0 mps 595 mmHg 82%
    06:00 +14°C° 0 mm 0 mps 596 mmHg 75%
    07:00 +15°C° 0 mm 0 mps 597 mmHg 68%
    08:00 +16°C° 0 mm 0 mps 598 mmHg 61%
    09:00 +18°C° 0 mm 0 mps 598 mmHg 56%
    10:00 +19°C° 0 mm 0 mps 598 mmHg 51%
    11:00 +21°C° 0 mm 0 mps 598 mmHg 45%
    12:00 +23°C° 0 mm 1 mps 597 mmHg 45%
    13:00 +24°C° 0 mm 2 mps 597 mmHg 44%
    14:00 +24°C° 0 mm 3 mps 596 mmHg 43%
    15:00 +22°C° 0.1 mm 3 mps 596 mmHg 50%
    16:00 +21°C° 0.1 mm 3 mps 596 mmHg 58%
    17:00 +19°C° 0.1 mm 3 mps 596 mmHg 65%
    18:00 +18°C° 0 mm 2 mps 596 mmHg 71%
    19:00 +17°C° 0 mm 2 mps 596 mmHg 77%
    20:00 +16°C° 0 mm 1 mps 596 mmHg 84%
    21:00 +16°C° 0.1 mm 1 mps 596 mmHg 83%
    22:00 +16°C° 0.1 mm 1 mps 596 mmHg 82%
    23:00 +16°C° 0.1 mm 1 mps 596 mmHg 80%

    Day after tomorrow, 19 November, Tuesday

    Time Temperature Precipitation Wind Pressure Humidity
    00:00 +16°C° 0 mm 1 mps 595 mmHg 82%
    01:00 +15°C° 0 mm 1 mps 595 mmHg 83%
    02:00 +15°C° 0 mm 1 mps 594 mmHg 84%
    03:00 +14°C° 0 mm 1 mps 594 mmHg 84%
    04:00 +14°C° 0 mm 1 mps 594 mmHg 85%
    05:00 +14°C° 0 mm 1 mps 594 mmHg 85%
    06:00 +15°C° 0 mm 1 mps 595 mmHg 79%
    07:00 +16°C° 0 mm 0 mps 596 mmHg 72%
    08:00 +17°C° 0 mm 0 mps 597 mmHg 66%
    09:00 +21°C° 0 mm 1 mps 597 mmHg 60%
    10:00 +22°C° 0 mm 1 mps 598 mmHg 54%
    11:00 +23°C° 0 mm 2 mps 598 mmHg 49%
    12:00 +24°C° 0 mm 2 mps 597 mmHg 48%
    13:00 +24°C° 0 mm 2 mps 597 mmHg 48%
    14:00 +24°C° 0 mm 2 mps 596 mmHg 48%
    15:00 +23°C° 0 mm 2 mps 596 mmHg 53%
    16:00 +20°C° 0 mm 2 mps 596 mmHg 59%
    17:00 +19°C° 0 mm 2 mps 595 mmHg 65%
    18:00 +18°C° 0 mm 2 mps 596 mmHg 70%
    19:00 +19°C° 0 mm 1 mps 596 mmHg 75%
    20:00 +16°C° 0 mm 0 mps 596 mmHg 80%
    21:00 +15°C° 0 mm 0 mps 596 mmHg 81%
    22:00 +15°C° 0 mm 0 mps 596 mmHg 83%
    23:00 +15°C° 0 mm 0 mps 595 mmHg 84%

    20 November, Wednesday

    Time Temperature Precipitation Wind Pressure Humidity
    00:00 +14°C° 0 mm 0 mps 595 mmHg 84%
    01:00 +15°C° 0 mm 1 mps 595 mmHg 83%
    02:00 +15°C° 0 mm 1 mps 595 mmHg 83%
    03:00 +15°C° 0 mm 1 mps 595 mmHg 83%
    04:00 +15°C° 0 mm 1 mps 595 mmHg 82%
    05:00 +15°C° 0 mm 1 mps 595 mmHg 82%
    06:00 +16°C° 0 mm 1 mps 596 mmHg 76%
    07:00 +18°C° 0 mm 1 mps 597 mmHg 70%
    08:00 +20°C° 0 mm 1 mps 598 mmHg 64%
    09:00 +19°C° 0 mm 0 mps 598 mmHg 58%
    10:00 +21°C° 0 mm 0 mps 598 mmHg 51%
    11:00 +23°C° 0 mm 0 mps 598 mmHg 45%
    12:00 +25°C° 0 mm 1 mps 598 mmHg 42%
    13:00 +26°C° 0 mm 1 mps 597 mmHg 40%
    14:00 +26°C° 0 mm 2 mps 597 mmHg 37%
    15:00 +25°C° 0 mm 2 mps 597 mmHg 42%
    16:00 +23°C° 0 mm 2 mps 597 mmHg 47%
    17:00 +21°C° 0 mm 2 mps 596 mmHg 51%
    18:00 +21°C° 0 mm 2 mps 597 mmHg 54%
    19:00 +21°C° 0 mm 1 mps 597 mmHg 58%
    20:00 +20°C° 0 mm 1 mps 597 mmHg 61%
    21:00 +20°C° 0 mm 1 mps 597 mmHg 63%
    22:00 +17°C° 0 mm 0 mps 597 mmHg 66%
    23:00 +17°C° 0 mm 0 mps 597 mmHg 68%

    21 November, Thursday

    Time Temperature Precipitation Wind Pressure Humidity
    00:00 +17°C° 0 mm 0 mps 596 mmHg 69%
    01:00 +18°C° 0 mm 1 mps 596 mmHg 69%
    02:00 +18°C° 0 mm 1 mps 596 mmHg 69%
    03:00 +18°C° 0 mm 1 mps 596 mmHg 71%
    04:00 +16°C° 0 mm 1 mps 596 mmHg 73%
    05:00 +16°C° 0 mm 1 mps 596 mmHg 75%
    06:00 +18°C° 0 mm 1 mps 597 mmHg 71%
    07:00 +19°C° 0 mm 1 mps 597 mmHg 66%
    08:00 +21°C° 0 mm 1 mps 598 mmHg 61%
    09:00 +22°C° 0 mm 1 mps 598 mmHg 56%
    10:00 +21°C° 0 mm 0 mps 599 mmHg 50%
    11:00 +23°C° 0 mm 0 mps 599 mmHg 44%
    12:00 +25°C° 0 mm 1 mps 598 mmHg 42%
    13:00 +26°C° 0 mm 1 mps 598 mmHg 40%
    14:00 +26°C° 0 mm 1 mps 597 mmHg 37%
    15:00 +25°C° 0 mm 2 mps 597 mmHg 41%
    16:00 +24°C° 0 mm 2 mps 597 mmHg 45%
    17:00 +23°C° 0 mm 2 mps 597 mmHg 48%
    18:00 +21°C° 0.1 mm 2 mps 597 mmHg 54%
    19:00 +21°C° 0.1 mm 1 mps 597 mmHg 60%
    20:00 +21°C° 0.1 mm 1 mps 597 mmHg 65%
    21:00 +20°C° 0.1 mm 1 mps 597 mmHg 68%
    22:00 +19°C° 0.1 mm 1 mps 597 mmHg 70%
    23:00 +19°C° 0.1 mm 1 mps 596 mmHg 72%

    22 November, Friday

    Time Temperature Precipitation Wind Pressure Humidity
    00:00 +18°C° 0 mm 1 mps 596 mmHg 73%
    01:00 +18°C° 0 mm 1 mps 595 mmHg 74%
    02:00 +16°C° 0 mm 1 mps 595 mmHg 75%
    03:00 +16°C° 0 mm 1 mps 595 mmHg 76%
    04:00 +16°C° 0 mm 1 mps 595 mmHg 77%
    05:00 +15°C° 0 mm 1 mps 595 mmHg 78%
    06:00 +18°C° 0 mm 1 mps 596 mmHg 73%
    07:00 +19°C° 0 mm 1 mps 597 mmHg 68%
    08:00 +21°C° 0 mm 1 mps 598 mmHg 62%
    09:00 +22°C° 0 mm 1 mps 598 mmHg 57%
    10:00 +23°C° 0 mm 2 mps 598 mmHg 51%
    11:00 +25°C° 0 mm 2 mps 598 mmHg 46%
    12:00 +25°C° 0 mm 2 mps 598 mmHg 45%
    13:00 +25°C° 0 mm 3 mps 597 mmHg 44%
    14:00 +25°C° 0 mm 3 mps 596 mmHg 43%
    15:00 +24°C° 0.1 mm 3 mps 596 mmHg 46%
    16:00 +23°C° 0.1 mm 2 mps 596 mmHg 49%
    17:00 +21°C° 0.1 mm 2 mps 596 mmHg 53%
    18:00 +20°C° 0.1 mm 2 mps 596 mmHg 57%
    19:00 +20°C° 0.1 mm 1 mps 596 mmHg 62%
    20:00 +19°C° 0.1 mm 1 mps 596 mmHg 67%
    21:00 +19°C° 0.1 mm 1 mps 596 mmHg 68%
    22:00 +18°C° 0.1 mm 1 mps 596 mmHg 70%
    23:00 +18°C° 0.1 mm 1 mps 596 mmHg 72%
    Show more